ACA107 CYYZ-CYVR

Flight info

Callsign ACA107
Flight time N/A
Altitude 40000
Route AVSEP7 MUSIT DCT SSM DCT YQT DCT GABOV DCT SEGAP DCT WALSH DCT DESNU Q888 BOOTH CANUC6
Aircraft B788/H-SDE1E2E3FGHIJ2J3J4J5M1RWXY/LB1D1

Departure

Time 2026-05-04 18:47
Airport Toronto Pearson International Airport (CYYZ)

Arrival

Time N/A
Airport Vancouver International Airport (CYVR)
Time Latitude Longitude Altitude Speed Heading
2026-05-04 18:32 43.67962 -79.61794 569 ft 0 kts 99°
2026-05-04 18:36 43.67964 -79.61813 573 ft 4 kts 99°
2026-05-04 18:36 43.67969 -79.61849 567 ft 4 kts 99°
2026-05-04 18:36 43.67976 -79.61884 569 ft 4 kts 122°
2026-05-04 18:37 43.67993 -79.61907 567 ft 4 kts 174°
2026-05-04 18:37 43.68008 -79.61901 567 ft 1 kts 226°
2026-05-04 18:37 43.68011 -79.61898 567 ft 0 kts 226°
2026-05-04 18:39 43.68010 -79.61898 567 ft 0 kts 226°
2026-05-04 18:40 43.68005 -79.61908 567 ft 2 kts 232°
2026-05-04 18:40 43.67996 -79.61935 569 ft 4 kts 248°
2026-05-04 18:40 43.67986 -79.61979 572 ft 6 kts 252°
2026-05-04 18:40 43.67965 -79.62029 572 ft 6 kts 228°
2026-05-04 18:41 43.67932 -79.62074 572 ft 7 kts 226°
2026-05-04 18:41 43.67918 -79.62126 574 ft 5 kts 269°
2026-05-04 18:41 43.67936 -79.62182 575 ft 9 kts 304°
2026-05-04 18:41 43.67990 -79.62261 575 ft 14 kts 315°
2026-05-04 18:42 43.68078 -79.62376 575 ft 20 kts 316°
2026-05-04 18:42 43.68196 -79.62496 571 ft 19 kts 343°
2026-05-04 18:42 43.68306 -79.62533 573 ft 15 kts 326°
2026-05-04 18:42 43.68386 -79.62627 574 ft 15 kts 316°
2026-05-04 18:43 43.68465 -79.62730 574 ft 16 kts 316°
2026-05-04 18:43 43.68547 -79.62836 574 ft 16 kts 317°
2026-05-04 18:43 43.68632 -79.62947 572 ft 17 kts 316°
2026-05-04 18:43 43.68717 -79.63059 572 ft 17 kts 317°
2026-05-04 18:44 43.68803 -79.63171 572 ft 17 kts 316°
2026-05-04 18:44 43.68832 -79.63210 572 ft 17 kts 316°
2026-05-04 18:44 43.68971 -79.63391 573 ft 16 kts 317°
2026-05-04 18:44 43.69052 -79.63495 573 ft 13 kts 316°
2026-05-04 18:45 43.69090 -79.63531 575 ft 2 kts 335°
2026-05-04 18:45 43.69097 -79.63531 573 ft 3 kts 353°
2026-05-04 18:45 43.69142 -79.63494 573 ft 14 kts 39°
2026-05-04 18:45 43.69248 -79.63425 572 ft 19 kts
2026-05-04 18:46 43.69374 -79.63451 571 ft 18 kts 322°
2026-05-04 18:46 43.69378 -79.63561 572 ft 10 kts 234°
2026-05-04 18:46 43.69336 -79.63623 574 ft 9 kts 227°
2026-05-04 18:46 43.69239 -79.63765 572 ft 35 kts 226°
2026-05-04 18:47 43.68930 -79.64211 579 ft 94 kts 226°
2026-05-04 18:47 43.68342 -79.65063 578 ft 149 kts 227°
2026-05-04 18:47 43.67600 -79.66150 1257 ft 158 kts 229°
2026-05-04 18:47 43.66815 -79.67157 2297 ft 151 kts 220°
2026-05-04 18:48 43.65997 -79.68122 2913 ft 167 kts 224°
2026-05-04 18:48 43.65152 -79.69286 3575 ft 175 kts 228°
2026-05-04 18:48 43.64342 -79.70524 4573 ft 160 kts 233°
2026-05-04 18:48 43.63977 -79.71830 5651 ft 152 kts 257°
2026-05-04 18:49 43.63866 -79.73429 5976 ft 182 kts 270°
2026-05-04 18:49 43.64231 -79.75217 6403 ft 209 kts 287°
2026-05-04 18:49 43.64832 -79.77198 6766 ft 240 kts 287°
2026-05-04 18:49 43.65509 -79.79426 7376 ft 257 kts 288°
2026-05-04 18:50 43.66166 -79.81706 8442 ft 258 kts 287°
2026-05-04 18:50 43.66803 -79.84036 9282 ft 263 kts 287°
2026-05-04 18:50 43.67505 -79.86394 10170 ft 269 kts 289°
2026-05-04 18:50 43.68266 -79.88844 10577 ft 291 kts 289°
2026-05-04 18:51 43.69069 -79.91545 10768 ft 317 kts 292°
2026-05-04 18:51 43.70407 -79.94022 11625 ft 325 kts 310°
2026-05-04 18:51 43.72275 -79.95855 12396 ft 336 kts 327°
2026-05-04 18:51 43.74356 -79.97371 13122 ft 341 kts 328°
2026-05-04 18:52 43.76480 -79.98860 13870 ft 343 kts 328°
2026-05-04 18:52 43.78589 -80.00342 14533 ft 346 kts 328°
2026-05-04 18:52 43.80732 -80.01875 15199 ft 348 kts 328°
2026-05-04 18:52 43.82894 -80.03427 15856 ft 351 kts 328°
2026-05-04 18:53 43.85070 -80.04982 16490 ft 354 kts 328°
2026-05-04 18:53 43.87273 -80.06553 17117 ft 358 kts 328°
2026-05-04 18:53 43.89497 -80.08143 17736 ft 361 kts 327°
2026-05-04 18:53 43.91726 -80.09758 18297 ft 362 kts 325°
2026-05-04 18:54 43.93695 -80.11811 18797 ft 357 kts 312°
2026-05-04 18:54 43.95305 -80.14410 19361 ft 354 kts 303°
2026-05-04 18:54 43.96798 -80.17138 19843 ft 356 kts 303°
2026-05-04 18:54 43.98286 -80.19888 20438 ft 356 kts 303°
2026-05-04 18:55 43.99775 -80.22651 20895 ft 358 kts 303°
2026-05-04 18:55 44.02789 -80.28223 21837 ft 363 kts 303°
2026-05-04 18:55 44.04304 -80.31028 22281 ft 365 kts 303°
2026-05-04 18:56 44.05808 -80.33820 22689 ft 367 kts 303°
2026-05-04 18:56 44.07341 -80.36667 23111 ft 369 kts 303°
2026-05-04 18:56 44.08878 -80.39522 23462 ft 370 kts 303°
2026-05-04 18:56 44.10425 -80.42398 23787 ft 372 kts 303°
2026-05-04 18:57 44.11977 -80.45288 24119 ft 373 kts 303°
2026-05-04 18:57 44.13537 -80.48187 24434 ft 375 kts 304°
2026-05-04 18:57 44.15296 -80.50903 24702 ft 379 kts 309°
2026-05-04 18:57 44.17098 -80.53584 25001 ft 380 kts 309°
2026-05-04 18:58 44.18881 -80.56251 25320 ft 382 kts 309°
2026-05-04 18:58 44.20699 -80.58959 25627 ft 383 kts 309°
2026-05-04 18:58 44.22522 -80.61668 25920 ft 385 kts 309°
2026-05-04 18:58 44.24355 -80.64399 26242 ft 386 kts 309°
2026-05-04 18:59 44.26193 -80.67146 26539 ft 388 kts 309°
2026-05-04 18:59 44.28038 -80.69904 26841 ft 389 kts 309°
2026-05-04 18:59 44.29865 -80.72636 27138 ft 391 kts 309°
2026-05-04 18:59 44.31743 -80.75447 27456 ft 392 kts 309°
2026-05-04 19:00 44.33582 -80.78203 27734 ft 394 kts 309°
2026-05-04 19:00 44.35452 -80.81008 28027 ft 395 kts 309°
2026-05-04 19:00 44.37328 -80.83826 28326 ft 397 kts 309°
2026-05-04 19:00 44.39206 -80.86648 28631 ft 398 kts 309°
2026-05-04 19:01 44.41095 -80.89491 28911 ft 400 kts 309°
2026-05-04 19:01 44.42992 -80.92348 29209 ft 401 kts 309°
2026-05-04 19:01 44.44892 -80.95212 29550 ft 402 kts 308°
2026-05-04 19:01 44.46793 -80.98083 29805 ft 403 kts 308°
2026-05-04 19:02 44.48679 -81.00933 30052 ft 405 kts 308°
2026-05-04 19:02 44.50596 -81.03831 30312 ft 406 kts 308°
2026-05-04 19:02 44.52516 -81.06739 30574 ft 407 kts 308°
2026-05-04 19:02 44.54436 -81.09648 30832 ft 408 kts 308°
2026-05-04 19:03 44.56365 -81.12575 31091 ft 409 kts 308°
2026-05-04 19:03 44.58299 -81.15513 31344 ft 410 kts 308°
2026-05-04 19:03 44.59582 -81.17464 31524 ft 411 kts 308°
2026-05-04 19:03 44.62176 -81.21411 31874 ft 413 kts 308°
2026-05-04 19:04 44.63466 -81.23376 32032 ft 413 kts 308°
2026-05-04 19:04 44.66052 -81.27318 32370 ft 415 kts 308°
2026-05-04 19:04 44.68010 -81.30306 32680 ft 416 kts 308°
2026-05-04 19:04 44.69964 -81.33294 32933 ft 417 kts 308°
2026-05-04 19:05 44.71927 -81.36300 33168 ft 418 kts 308°
2026-05-04 19:05 44.73230 -81.38296 33320 ft 418 kts 308°
2026-05-04 19:05 44.75202 -81.41317 33548 ft 420 kts 308°
2026-05-04 19:05 44.77178 -81.44350 33734 ft 421 kts 308°
2026-05-04 19:06 44.79155 -81.47388 33884 ft 423 kts 308°
2026-05-04 19:06 44.81144 -81.50446 34083 ft 423 kts 308°
2026-05-04 19:06 44.83778 -81.54501 34350 ft 424 kts 308°
2026-05-04 19:06 44.85122 -81.56574 34501 ft 424 kts 308°
2026-05-04 19:07 44.87087 -81.59606 34710 ft 424 kts 308°
2026-05-04 19:07 44.89073 -81.62673 34943 ft 425 kts 307°
2026-05-04 19:07 44.91068 -81.65758 35143 ft 426 kts 307°
2026-05-04 19:07 44.93064 -81.68850 35360 ft 426 kts 307°
2026-05-04 19:08 44.95063 -81.71948 35572 ft 427 kts 307°
2026-05-04 19:08 44.97058 -81.75043 35778 ft 427 kts 307°
2026-05-04 19:08 44.99060 -81.78152 35994 ft 428 kts 307°
2026-05-04 19:08 45.01063 -81.81268 36199 ft 428 kts 307°
2026-05-04 19:09 45.03068 -81.84389 36401 ft 429 kts 307°
2026-05-04 19:09 45.05070 -81.87507 36610 ft 429 kts 307°
2026-05-04 19:09 45.07079 -81.90640 36822 ft 430 kts 307°
2026-05-04 19:09 45.09062 -81.93737 37029 ft 430 kts 308°
2026-05-04 19:10 45.11074 -81.96882 37248 ft 431 kts 307°
2026-05-04 19:10 45.12436 -81.99013 37348 ft 432 kts 307°
2026-05-04 19:10 45.15106 -82.03196 37599 ft 433 kts 307°
2026-05-04 19:10 45.17128 -82.06368 37792 ft 434 kts 307°
2026-05-04 19:11 45.19152 -82.09546 37967 ft 434 kts 307°
2026-05-04 19:11 45.21172 -82.12722 38157 ft 435 kts 307°
2026-05-04 19:11 45.23200 -82.15914 38308 ft 436 kts 308°
2026-05-04 19:11 45.25230 -82.19113 38444 ft 436 kts 308°
2026-05-04 19:12 45.27236 -82.22277 38595 ft 437 kts 308°
2026-05-04 19:12 45.31303 -82.28702 38937 ft 438 kts 307°
2026-05-04 19:12 45.33337 -82.31924 39100 ft 439 kts 307°
2026-05-04 19:13 45.35381 -82.35167 39207 ft 441 kts 307°
2026-05-04 19:13 45.37430 -82.38417 39369 ft 441 kts 307°
2026-05-04 19:13 45.39480 -82.41677 39481 ft 442 kts 306°
2026-05-04 19:14 45.43273 -82.48494 39699 ft 444 kts 304°
2026-05-04 19:14 45.47113 -82.55435 39824 ft 449 kts 304°
2026-05-04 19:15 45.50971 -82.62445 39830 ft 448 kts 304°
2026-05-04 19:15 45.55420 -82.70544 39821 ft 446 kts 304°
2026-05-04 19:16 45.58606 -82.76362 39825 ft 448 kts 304°
2026-05-04 19:16 45.62454 -82.83399 39812 ft 449 kts 304°
2026-05-04 19:17 45.66285 -82.90425 39810 ft 448 kts 304°
2026-05-04 19:17 45.70107 -82.97451 39791 ft 447 kts 303°
2026-05-04 19:18 45.73923 -83.04485 39792 ft 448 kts 303°
2026-05-04 19:18 45.77718 -83.11496 39781 ft 449 kts 303°
2026-05-04 19:19 45.81541 -83.18578 39781 ft 450 kts 303°
2026-05-04 19:19 45.85375 -83.25697 39775 ft 450 kts 303°
2026-05-04 19:20 45.89192 -83.32802 39772 ft 450 kts 303°
2026-05-04 19:20 45.92985 -83.39881 39761 ft 450 kts 303°
2026-05-04 19:21 45.96797 -83.47013 39754 ft 450 kts 303°
2026-05-04 19:21 46.00615 -83.54176 39747 ft 452 kts 303°
2026-05-04 19:22 46.04436 -83.61363 39744 ft 453 kts 303°
2026-05-04 19:22 46.08235 -83.68526 39744 ft 453 kts 303°
2026-05-04 19:23 46.12046 -83.75729 39743 ft 452 kts 303°
2026-05-04 19:23 46.15848 -83.82935 39742 ft 451 kts 303°
2026-05-04 19:24 46.19633 -83.90126 39739 ft 450 kts 303°
2026-05-04 19:24 46.23396 -83.97296 39742 ft 453 kts 303°
2026-05-04 19:25 46.27211 -84.04581 39749 ft 455 kts 303°
2026-05-04 19:25 46.31016 -84.11865 39750 ft 454 kts 303°
2026-05-04 19:26 46.34810 -84.19151 39753 ft 453 kts 303°
2026-05-04 19:26 46.38589 -84.26423 39755 ft 452 kts 303°
2026-05-04 19:27 46.42134 -84.33827 39779 ft 448 kts 296°
2026-05-04 19:27 46.45238 -84.41690 39772 ft 451 kts 297°
2026-05-04 19:28 46.48343 -84.49596 39777 ft 451 kts 297°
2026-05-04 19:28 46.51442 -84.57501 39772 ft 451 kts 296°
2026-05-04 19:29 46.54519 -84.65375 39777 ft 451 kts 296°
2026-05-04 19:29 46.57606 -84.73298 39767 ft 451 kts 296°
2026-05-04 19:30 46.60692 -84.81239 39762 ft 451 kts 296°
2026-05-04 19:30 46.63767 -84.89177 39758 ft 451 kts 296°
2026-05-04 19:31 46.66819 -84.97081 39748 ft 451 kts 296°
2026-05-04 19:31 46.69888 -85.05048 39744 ft 451 kts 296°
2026-05-04 19:32 46.72944 -85.13005 39741 ft 450 kts 296°
2026-05-04 19:32 46.76001 -85.20994 39742 ft 452 kts 296°
2026-05-04 19:33 46.79042 -85.28958 39748 ft 453 kts 296°
2026-05-04 19:33 46.82104 -85.37004 39738 ft 453 kts 296°
2026-05-04 19:34 46.85155 -85.45041 39749 ft 452 kts 296°
2026-05-04 19:34 46.88198 -85.53086 39748 ft 452 kts 296°
2026-05-04 19:35 46.91223 -85.61107 39743 ft 456 kts 296°
2026-05-04 19:35 46.94290 -85.69259 39747 ft 457 kts 296°
2026-05-04 19:36 46.97345 -85.77409 39745 ft 457 kts 296°
2026-05-04 19:36 47.00396 -85.85568 39743 ft 456 kts 296°
2026-05-04 19:37 47.03407 -85.93649 39745 ft 454 kts 296°
2026-05-04 19:37 47.06426 -86.01772 39743 ft 452 kts 296°
2026-05-04 19:38 47.09431 -86.09887 39740 ft 454 kts 296°
2026-05-04 19:38 47.12445 -86.18047 39742 ft 456 kts 296°
2026-05-04 19:39 47.15452 -86.26214 39751 ft 459 kts 296°
2026-05-04 19:39 47.18479 -86.34460 39738 ft 457 kts 296°
2026-05-04 19:40 47.21480 -86.42664 39741 ft 455 kts 296°
2026-05-04 19:40 47.24476 -86.50874 39740 ft 455 kts 296°
2026-05-04 19:41 47.27460 -86.59080 39736 ft 455 kts 296°
2026-05-04 19:41 47.30423 -86.67253 39733 ft 455 kts 295°
2026-05-04 19:42 47.33398 -86.75486 39728 ft 454 kts 295°
2026-05-04 19:42 47.36366 -86.83725 39725 ft 458 kts 295°
2026-05-04 19:43 47.39335 -86.91989 39723 ft 459 kts 295°
2026-05-04 19:43 47.42314 -87.00310 39725 ft 459 kts 295°
2026-05-04 19:44 47.45290 -87.08648 39724 ft 458 kts 295°
2026-05-04 19:44 47.48252 -87.16971 39718 ft 457 kts 295°
2026-05-04 19:45 47.51199 -87.25281 39711 ft 455 kts 295°
2026-05-04 19:45 47.54109 -87.33511 39700 ft 455 kts 295°
2026-05-04 19:46 47.57043 -87.41837 39712 ft 457 kts 295°
2026-05-04 19:46 47.59991 -87.50229 39705 ft 461 kts 295°
2026-05-04 19:47 47.62947 -87.58669 39702 ft 461 kts 295°
2026-05-04 19:47 47.65889 -87.67097 39698 ft 460 kts 295°
2026-05-04 19:48 47.68803 -87.75471 39698 ft 459 kts 295°
2026-05-04 19:48 47.71721 -87.83885 39695 ft 458 kts 295°
2026-05-04 19:49 47.74633 -87.92308 39693 ft 458 kts 295°
2026-05-04 19:49 47.77514 -88.00670 39700 ft 457 kts 295°
2026-05-04 19:50 47.80405 -88.09086 39699 ft 459 kts 295°